Weather History for Newburgh, NY

Change the Weather History Date:

Monday, February 18, 2013

  Actual Average Record
Temperature  
Mean Temperature 23 °F -  
Max Temperature 32 °F 37 °F 32 °F (2014)
Min Temperature 14 °F 20 °F 19 °F (2014)
Degree Days  
Heating Degree Days 42    
Moisture  
Dew Point 8 °F    
Average Humidity 53    
Maximum Humidity 63    
Minimum Humidity 41    
Precipitation  
Precipitation 0.00 in - - ()
Sea Level Pressure  
Sea Level Pressure 30.14 in    
Wind  
Wind Speed 17 mph (WNW)    
Max Wind Speed 23 mph    
Max Gust Speed 40 mph    
Visibility 14 miles    
Events      
Averages and records for this station are not official NWS values.
T = Trace of Precipitation, MM = Missing Value Source: NWS Daily Summary

Daily Weather History Graph

Daily Weather History Graph

Search for Another Location

Airport:

Trip Planner

Search our weather history database for the weather conditions in past years. The results will help you decide how hot, cold, wet, or windy it might be!

Date:

Astronomy

Feb. 18, 2013 Rise Set
Actual Time 6:47 AM EST 5:34 PM EST
Civil Twilight 6:18 AM EST 6:02 PM EST
Nautical Twilight 5:46 AM EST 6:34 PM EST
Astronomical Twilight 5:14 AM EST 7:06 PM EST
Moon 11:15 AM EST (2/18) 1:26 AM EST (2/18)
Length of Visible Light 11h 43m
Length of Day
10h 47m
First Quarter, 58% of the Moon is Illuminated
Feb 18
First Quarter
Feb 25
Full
Mar 4
Last Quarter
Mar 11
New
Mar 19
First Quarter

Hourly Weather History & Observations

Time (EST) Temp. Windchill Dew Point Humidity Pressure Visibility Wind Dir Wind Speed Gust Speed Precip Events Conditions
12:45 AM 15.8 °F -2.3 °F 3.2 °F 58% 29.97 in 10.0 mi WNW 23.0 mph 40.3 mph N/A   Scattered Clouds
1:45 AM 15.8 °F -0.6 °F 3.2 °F 58% 29.99 in 10.0 mi WNW 18.4 mph 29.9 mph N/A   Clear
4:45 AM 14.0 °F -4.7 °F 3.2 °F 62% 30.06 in 10.0 mi WNW 23.0 mph 29.9 mph N/A   Clear
5:45 AM 14.0 °F 0.5 °F 3.2 °F 62% 30.10 in 10.0 mi West 11.5 mph 23.0 mph N/A   Clear
6:45 AM 14.0 °F -2.5 °F 3.2 °F 62% 30.14 in 10.0 mi West 17.3 mph 28.8 mph N/A   Partly Cloudy
7:45 AM 15.8 °F -1.1 °F 5.0 °F 62% 30.14 in 10.0 mi WNW 19.6 mph 34.5 mph N/A   Clear
8:45 AM 17.6 °F 0.9 °F 6.8 °F 63% 30.17 in 10.0 mi West 20.7 mph 28.8 mph N/A   Clear
9:45 AM 19.4 °F 4.5 °F 6.8 °F 58% 30.18 in 20.0 mi WNW 17.3 mph 28.8 mph N/A   Clear
10:45 AM 23.0 °F 9.2 °F 8.6 °F 54% 30.20 in 20.0 mi WNW 17.3 mph 28.8 mph N/A   Clear
11:45 AM 24.8 °F 11.5 °F 8.6 °F 50% 30.19 in 20.0 mi WNW 17.3 mph 28.8 mph N/A   Clear
12:45 PM 26.6 °F 12.7 °F 8.6 °F 47% 30.18 in 20.0 mi WNW 20.7 mph 32.2 mph N/A   Clear
1:45 PM 28.4 °F 16.2 °F 12.2 °F 51% 30.16 in 20.0 mi NW 17.3 mph 32.2 mph N/A   Clear
2:45 PM 30.2 °F 18.5 °F 12.2 °F 47% 30.15 in 20.0 mi WNW 17.3 mph 32.2 mph N/A   Clear
3:45 PM 32.0 °F 20.8 °F 10.4 °F 41% 30.16 in 20.0 mi WNW 17.3 mph 28.8 mph N/A   Clear
4:45 PM 30.2 °F 18.9 °F 12.2 °F 47% 30.16 in 20.0 mi WNW 16.1 mph 25.3 mph N/A   Clear
5:45 PM 30.2 °F 22.6 °F 10.4 °F 44% 30.17 in 10.0 mi West 8.1 mph - N/A   Clear
6:45 PM 26.6 °F 17.5 °F 12.2 °F 55% 30.18 in 10.0 mi West 9.2 mph - N/A   Clear
8:45 PM 28.4 °F 21.2 °F 10.4 °F 47% 30.18 in 10.0 mi WSW 6.9 mph - N/A   Clear
9:45 PM 28.4 °F 22.2 °F 10.4 °F 47% 30.17 in 10.0 mi SW 5.8 mph - N/A   Clear
10:45 PM 28.4 °F 22.2 °F 10.4 °F 47% 30.17 in 10.0 mi SW 5.8 mph - N/A   Clear
11:45 PM 28.4 °F - 14.0 °F 55% 30.17 in 10.0 mi Calm Calm - N/A   Clear